Location: Haliburton Scout Reserve
(45.0900°N, 78.3200°W)
Time: 12:49:29
(UTC-05:00)

N. Korean satellite - Pass Details

Date: 01 December 2021
Orbit: 447 x 491 km, 97.3° (Epoch: 23 January)

Event Time Altitude Azimuth Distance (km) Brightness Sun altitude
Rises 04:25:57 0° 33° (NNE) 2,469 10.6 -32.1°
Reaches altitude 10° 04:29:04 10° 65° (ENE) 1,583 9.9 -31.5°
Maximum altitude 04:30:31 12° 91° (E) 1,446 9.8 -31.3°
Drops below altitude 10° 04:31:57 10° 116° (ESE) 1,573 9.9 -31.0°
Sets 04:35:01 0° 148° (SSE) 2,436 10.5 -30.5°
